GW7684 Weather Reports


Display with metric or nautical units.
time (UTC)temp
F
wind
direction
speed
MPH
gust
MPH
rain 1hr
in
rain 24hr
in
rain mn
in
humidity
%
barometer
mb
20260902043603 62 193 1.0 2.0 0.00 0.00 0.00 82 1008.9
20260902042703 62 201 1.0 6.0 0.00 0.00 0.00 82 1008.9
20260902041803 62 203 0.0 2.0 0.00 0.00 0.00 83 1008.9
20260902040903 61 201 0.0 1.0 0.00 0.00 0.00 77 1008.9
20260902040003 61 173 0.0 2.0 0.00 0.00 0.00 84 1009.2
20260902035618 61 168 0.0 2.0 0.00 0.00 0.00 84 1008.9
20260902034717 61 299 0.0 1.0 0.00 0.00 0.00 77 1008.9
20260902033817 61 248 1.0 2.0 0.00 0.00 0.00 77 1008.9
20260902032703 60 211 1.0 2.0 0.00 0.00 0.00 85 1008.9
20260902031803 60 210 1.0 2.0 0.00 0.00 0.00 84 1008.9
20260902030903 61 198 0.0 3.0 0.00 0.00 0.00 83 1008.9
20260902030003 62 179 1.0 3.0 0.00 0.00 0.00 82 1009.2
20260902025403 62 157 1.0 3.0 0.00 0.00 0.00 82 1008.9
20260902024503 62 190 1.0 3.0 0.00 0.00 0.00 83 1008.9
20260902023603 62 229 1.0 2.0 0.00 0.00 0.00 82 1008.9
20260902022703 62 231 0.0 2.0 0.00 0.00 0.00 82 1008.9
20260902021803 62 239 0.0 1.0 0.00 0.00 0.00 82 1008.9
20260902021118 62 252 0.0 2.0 0.00 0.00 0.00 82 1008.9
20260902020003 62 192 0.0 2.0 0.00 0.00 0.00 82 1008.9
20260902015403 62 218 0.0 2.0 0.00 0.00 0.00 82 1009.2
20260902014503 62 199 1.0 6.0 0.00 0.00 0.00 81 1008.9
20260902013603 62 217 1.0 2.0 0.00 0.00 0.00 81 1009.2
20260902012703 61 308 0.0 1.0 0.00 0.00 0.00 76 1009.2
20260902011803 61 223 1.0 2.0 0.00 0.00 0.00 76 1008.9
20260902010903 62 209 1.0 2.0 0.00 0.00 0.00 81 1008.9
20260902010003 62 212 1.0 2.0 0.00 0.00 0.00 81 1008.9
20260902005617 62 210 1.0 1.0 0.00 0.00 0.00 81 1008.6
20260902004716 62 208 1.0 2.0 0.00 0.00 0.00 81 1008.9
20260902003603 62 208 1.0 2.0 0.00 0.00 0.00 82 1008.6
20260902002703 62 205 1.0 2.0 0.00 0.00 0.00 80 1008.9
20260902001803 64 202 1.0 2.0 0.00 0.00 0.00 77 1008.9
20260902000903 64 207 1.0 2.0 0.00 0.00 0.00 77 1008.9
20260902000003 65 197 1.0 3.0 0.00 0.00 0.00 76 1008.9
20260901235403 65 205 1.0 2.0 0.00 0.00 0.00 76 1008.9
20260901234503 64 203 1.0 2.0 0.00 0.00 0.00 77 1008.9
20260901233603 64 205 1.0 3.0 0.00 0.00 0.00 77 1008.9
20260901232703 65 199 1.0 4.0 0.00 0.00 0.00 77 1008.9
20260901231803 65 196 1.0 3.0 0.00 0.00 0.00 77 1008.9
20260901230903 64 187 1.0 3.0 0.00 0.00 0.00 78 1008.9
20260901230004 64 182 1.0 4.0 0.00 0.00 0.00 77 1008.9
20260901225403 65 192 1.0 4.0 0.00 0.00 0.00 77 1008.6
20260901224715 65 182 2.0 4.0 0.00 0.00 0.00 77 1008.9
20260901223603 65 193 1.0 4.0 0.00 0.00 0.00 75 1008.9
20260901222918 65 161 2.0 4.0 0.00 0.00 0.00 76 1008.9
20260901221803 63 162 1.0 3.0 0.00 0.00 0.00 72 1008.9
20260901220903 67 192 1.0 1.0 0.00 0.00 0.00 74 1008.9
20260901220003 63 176 1.0 4.0 0.00 0.00 0.00 74 1008.9
20260901215403 62 175 0.0 4.0 0.00 0.00 0.00 74 1008.9
20260901214719 62 199 1.0 4.0 0.00 0.00 0.00 74 1008.9
20260901213603 66 200 1.0 3.0 0.00 0.00 0.00 75 1009.2
20260901212703 66 203 1.0 3.0 0.00 0.00 0.00 75 1009.2
20260901211803 66 200 1.0 3.0 0.00 0.00 0.00 75 1009.2
20260901210903 65 196 1.0 3.0 0.00 0.00 0.00 76 1009.2
20260901210003 66 171 1.0 2.0 0.00 0.00 0.00 76 1009.2
20260901205619 66 178 1.0 2.0 0.00 0.00 0.00 76 1009.2
20260901204503 67 157 2.0 5.0 0.00 0.00 0.00 74 1009.2
20260901203603 63 150 3.0 5.0 0.00 0.00 0.00 75 1009.6
20260901202703 63 166 1.0 5.0 0.00 0.00 0.00 75 1009.2
20260901201803 68 193 1.0 3.0 0.00 0.00 0.00 74 1009.2
20260901200903 68 146 1.0 3.0 0.00 0.00 0.00 75 1009.2
20260901200003 67 145 1.0 4.0 0.00 0.00 0.00 76 1009.2
20260901195403 68 117 1.0 2.0 0.00 0.00 0.00 74 1009.2
20260901194503 69 97 1.0 2.0 0.00 0.00 0.00 73 1009.2
20260901193603 68 115 1.0 3.0 0.00 0.00 0.00 74 1009.2
20260901192703 68 109 1.0 3.0 0.00 0.00 0.00 73 1009.2
20260901191803 69 151 1.0 3.0 0.00 0.00 0.00 73 1009.6
20260901190903 69 118 0.0 2.0 0.00 0.00 0.00 71 1009.6
20260901190003 68 134 0.0 2.0 0.00 0.00 0.00 75 1009.2
20260901185403 67 178 1.0 4.0 0.00 0.00 0.00 77 1009.6
20260901184503 66 175 1.0 4.0 0.00 0.00 0.00 78 1009.6
20260901183603 65 175 1.0 3.0 0.00 0.00 0.00 79 1009.6
20260901182703 64 164 1.0 3.0 0.00 0.00 0.00 80 1009.6
20260901181803 64 187 1.0 2.0 0.00 0.00 0.00 80 1009.6
20260901180903 63 202 1.0 2.0 0.00 0.00 0.00 81 1009.6
20260901180003 63 188 1.0 3.0 0.00 0.00 0.00 81 1009.6
20260901175403 62 162 1.0 3.0 0.00 0.00 0.00 82 1009.6
20260901174503 59 161 1.0 3.0 0.00 0.00 0.00 82 1009.6
20260901173603 62 198 0.0 1.0 0.00 0.00 0.00 83 1009.9
20260901172703 60 159 1.0 4.0 0.00 0.00 0.00 81 1009.9
20260901171803 60 205 1.0 3.0 0.00 0.00 0.00 86 1009.6
20260901170903 59 217 1.0 2.0 0.00 0.00 0.00 83 1009.9
20260901170218 59 164 1.0 4.0 0.00 0.00 0.00 83 1009.9
20260901165403 58 154 1.0 4.0 0.00 0.00 0.00 84 1009.6
20260901164717 60 262 0.0 2.0 0.00 0.00 0.00 88 1009.6
20260901163603 59 221 0.0 1.0 0.00 0.00 0.00 89 1009.6
20260901162703 59 338 0.0 1.0 0.00 0.00 0.00 89 1009.6
20260901162019 59 31 0.0 1.0 0.00 0.00 0.00 89 1009.6
20260901160903 58 2 0.0 2.0 0.00 0.00 0.00 91 1009.9
20260901160004 58 311 0.0 1.0 0.00 0.00 0.00 90 1009.9
20260901155403 59 271 0.0 1.0 0.00 0.00 0.00 90 1009.9
20260901154503 58 279 1.0 2.0 0.00 0.00 0.00 89 1009.9
20260901153603 58 326 1.0 2.0 0.00 0.00 0.00 90 1009.6
20260901152703 57 281 2.0 3.0 0.00 0.00 0.00 90 1009.6
20260901151803 57 291 1.0 2.0 0.00 0.00 0.00 92 1009.6
20260901151118 56 318 1.0 2.0 0.00 0.00 0.00 93 1009.6
20260901150217 56 315 1.0 2.0 0.00 0.00 0.00 95 1009.6
20260901145403 56 285 1.0 3.0 0.00 0.00 0.00 95 1009.6
20260901144503 55 319 1.0 3.0 0.00 0.00 0.00 95 1009.2
20260901143816 54 247 0.0 2.0 0.00 0.00 0.00 96 1009.6
20260901142703 54 288 0.0 2.0 0.00 0.00 0.00 96 1009.2
20260901141803 54 303 1.0 2.0 0.00 0.00 0.00 97 1009.6
20260901140903 53 272 0.0 1.0 0.00 0.00 0.00 97 1009.2
20260901140003 53 0 0.0 0.0 0.00 0.00 0.00 97 1009.2
20260901135403 53 286 0.0 1.0 0.00 0.00 0.00 96 1009.2
20260901134503 53 280 1.0 2.0 0.00 0.00 0.00 96 1008.9
20260901133819 53 273 1.0 1.0 0.00 0.00 0.00 96 1008.9
20260901132703 53 271 0.0 2.0 0.00 0.00 0.00 97 1009.2
20260901131803 53 285 0.0 1.0 0.00 0.00 0.00 97 1008.9
20260901130903 53 281 1.0 1.0 0.00 0.00 0.00 96 1008.9
20260901130003 53 0 0.0 0.0 0.00 0.00 0.00 96 1008.6
20260901125403 53 0 0.0 0.0 0.00 0.00 0.00 96 1008.9
20260901124716 53 0 0.0 0.0 0.00 0.00 0.00 96 1008.6
20260901123603 53 267 1.0 1.0 0.00 0.00 0.00 96 1008.9
20260901122703 53 268 0.0 1.0 0.00 0.00 0.00 96 1008.9
20260901121803 53 267 0.0 1.0 0.00 0.00 0.00 96 1008.9
20260901120903 54 266 0.0 1.0 0.00 0.00 0.00 96 1008.9
20260901120003 54 271 1.0 2.0 0.00 0.00 0.00 95 1008.9
20260901115616 54 271 1.0 2.0 0.00 0.00 0.00 95 1008.9
20260901114719 54 0 0.0 0.0 0.00 0.00 0.00 95 1008.9
20260901113819 54 0 0.0 0.0 0.00 0.00 0.00 95 1008.9
20260901112703 54 251 0.0 1.0 0.00 0.00 0.00 94 1008.9
20260901111803 54 268 1.0 2.0 0.00 0.00 0.00 94 1008.9
20260901110903 54 254 0.0 1.0 0.00 0.00 0.00 93 1009.2
20260901110003 55 256 1.0 1.0 0.00 0.00 0.00 93 1008.9
20260901105403 55 264 1.0 2.0 0.00 0.00 0.00 92 1008.9
20260901104503 55 267 0.0 2.0 0.00 0.00 0.00 93 1008.9
20260901103603 55 0 0.0 0.0 0.00 0.00 0.00 93 1009.2
20260901102703 55 272 0.0 1.0 0.00 0.00 0.00 93 1009.2
20260901102017 55 278 0.0 1.0 0.00 0.00 0.00 93 1008.9
20260901100903 55 267 0.0 1.0 0.00 0.00 0.00 93 1008.9
20260901100003 55 263 1.0 1.0 0.00 0.00 0.00 92 1008.9
20260901095403 55 263 0.0 1.0 0.00 0.00 0.00 92 1008.9
20260901094503 55 265 1.0 2.0 0.00 0.00 0.00 91 1009.2
20260901093603 55 259 1.0 1.0 0.00 0.00 0.00 91 1008.9
20260901092703 55 260 0.0 1.0 0.00 0.00 0.00 91 1008.9
20260901091803 55 259 1.0 1.0 0.00 0.00 0.00 91 1008.9
20260901090903 55 261 1.0 2.0 0.00 0.00 0.00 91 1008.9
20260901090219 55 266 1.0 2.0 0.00 0.00 0.00 90 1008.9
20260901085403 56 259 1.0 1.0 0.00 0.00 0.00 90 1008.9
20260901084503 56 258 1.0 1.0 0.00 0.00 0.00 90 1008.9
20260901083603 55 258 0.0 1.0 0.00 0.00 0.00 91 1008.9
20260901082703 55 257 0.0 1.0 0.00 0.00 0.00 91 1009.2
20260901081804 56 257 1.0 1.0 0.00 0.00 0.00 90 1008.9
20260901081115 56 257 1.0 2.0 0.00 0.00 0.00 90 1009.2
20260901080003 56 258 1.0 2.0 0.00 0.00 0.00 90 1008.9
20260901075403 56 258 1.0 1.0 0.00 0.00 0.00 90 1008.9
20260901074503 56 264 1.0 1.0 0.00 0.00 0.00 90 1008.9
20260901073603 56 272 1.0 1.0 0.00 0.00 0.00 89 1008.9
20260901072703 56 273 1.0 1.0 0.00 0.00 0.00 89 1008.9
20260901071803 56 275 1.0 2.0 0.00 0.00 0.00 89 1008.9
20260901070903 56 268 1.0 2.0 0.00 0.00 0.00 89 1008.9
20260901070003 56 253 0.0 1.0 0.00 0.00 0.00 89 1008.6
20260901065403 57 253 1.0 1.0 0.00 0.00 0.00 87 1008.9
20260901064717 57 253 0.0 1.0 0.00 0.00 0.00 87 1009.2
20260901063603 57 0 0.0 0.0 0.00 0.00 0.00 88 1009.2
20260901062703 57 0 0.0 0.0 0.00 0.00 0.00 87 1009.2
20260901061803 57 254 1.0 1.0 0.00 0.00 0.00 89 1009.2
20260901060903 58 257 1.0 2.0 0.00 0.00 0.00 87 1009.2
20260901060003 58 256 1.0 2.0 0.00 0.00 0.00 85 1008.9
20260901055403 58 253 1.0 2.0 0.00 0.00 0.00 84 1009.2
20260901054503 58 238 1.0 1.0 0.00 0.00 0.00 89 1009.2
20260901053603 58 245 1.0 2.0 0.00 0.00 0.00 86 1009.2
20260901052703 58 250 1.0 2.0 0.00 0.00 0.00 87 1009.2
20260901052019 58 250 1.0 2.0 0.00 0.00 0.00 86 1009.2
20260901050903 59 248 1.0 3.0 0.00 0.00 0.00 87 1009.2
20260901050218 59 249 1.0 3.0 0.00 0.00 0.00 88 1009.2
20260901045403 59 250 1.0 2.0 0.00 0.00 0.00 89 1009.2
20260901044505 59 250 1.0 2.0 0.00 0.00 0.00 89 1009.2